TimeEDT,TemperatureF,Dew PointF,Humidity,Sea Level PressureIn,VisibilityMPH,Wind Direction,Wind SpeedMPH,Gust SpeedMPH,PrecipitationIn,Events,Conditions,WindDirDegrees,DateUTC
12:15 AM,33.3,32.4,96,30.31,10.0,Calm,Calm,-,N/A,,Clear,0,2013-03-10 05:15:00
12:35 AM,33.1,32.5,98,30.31,7.0,Calm,Calm,-,N/A,,Clear,0,2013-03-10 05:35:00
12:55 AM,32.9,32.7,99,30.32,7.0,Calm,Calm,-,N/A,,Clear,0,2013-03-10 05:55:00
1:15 AM,32.2,32.0,99,30.32,7.0,Calm,Calm,-,N/A,,Clear,0,2013-03-10 06:15:00
1:35 AM,32.0,32.0,100,30.32,7.0,Calm,Calm,-,N/A,,Clear,0,2013-03-10 06:35:00
1:55 AM,31.8,31.6,99,30.31,7.0,Calm,Calm,-,N/A,,Clear,0,2013-03-10 06:55:00
3:15 AM,31.5,31.5,100,30.30,7.0,Calm,Calm,-,N/A,,Clear,0,2013-03-10 07:15:00
3:35 AM,30.4,30.4,100,30.29,7.0,Calm,Calm,-,N/A,,Clear,0,2013-03-10 07:35:00
3:55 AM,30.4,30.4,100,30.28,7.0,Calm,Calm,-,N/A,,Clear,0,2013-03-10 07:55:00
4:15 AM,30.2,30.2,100,30.28,7.0,Calm,Calm,-,N/A,,Clear,0,2013-03-10 08:15:00
4:55 AM,30.2,30.2,100,30.28,10.0,Calm,Calm,-,N/A,,Clear,0,2013-03-10 08:55:00
5:15 AM,29.8,29.7,99,30.29,7.0,Calm,Calm,-,N/A,,Clear,0,2013-03-10 09:15:00
5:35 AM,29.7,29.7,100,30.30,7.0,Calm,Calm,-,N/A,,Clear,0,2013-03-10 09:35:00
5:55 AM,29.3,29.3,100,30.30,5.0,Calm,Calm,-,N/A,,Clear,0,2013-03-10 09:55:00
6:15 AM,29.1,29.1,100,30.30,5.0,Calm,Calm,-,N/A,,Clear,0,2013-03-10 10:15:00
6:35 AM,28.9,28.9,100,30.30,7.0,Calm,Calm,-,N/A,,Clear,0,2013-03-10 10:35:00
6:55 AM,28.8,28.8,100,30.30,7.0,Calm,Calm,-,N/A,,Clear,0,2013-03-10 10:55:00
7:15 AM,29.5,29.5,100,30.31,7.0,Calm,Calm,-,N/A,,Clear,0,2013-03-10 11:15:00
8:35 AM,32.4,32.4,100,30.31,10.0,Calm,Calm,-,N/A,,Clear,0,2013-03-10 12:35:00
8:55 AM,37.4,35.4,93,30.31,10.0,Calm,Calm,-,N/A,,Clear,0,2013-03-10 12:55:00
9:15 AM,41.7,35.4,78,30.32,10.0,Calm,Calm,-,N/A,,Clear,0,2013-03-10 13:15:00
9:35 AM,45.1,36.0,70,30.32,10.0,Calm,Calm,-,N/A,,Clear,0,2013-03-10 13:35:00
9:55 AM,49.3,33.1,54,30.32,10.0,Calm,Calm,-,N/A,,Clear,0,2013-03-10 13:55:00
10:15 AM,51.8,28.4,41,30.32,10.0,Calm,Calm,-,N/A,,Clear,0,2013-03-10 14:15:00
10:35 AM,53.8,22.3,29,30.33,10.0,ESE,3.5,-,N/A,,Clear,110,2013-03-10 14:35:00
10:55 AM,55.2,19.6,25,30.33,10.0,East,6.9,-,N/A,,Clear,80,2013-03-10 14:55:00
11:15 AM,55.9,20.5,25,30.33,10.0,East,8.1,-,N/A,,Clear,80,2013-03-10 15:15:00
11:35 AM,57.7,19.9,23,30.33,10.0,East,3.5,-,N/A,,Clear,80,2013-03-10 15:35:00
11:55 AM,58.1,18.0,21,30.33,10.0,ESE,5.8,-,N/A,,Clear,120,2013-03-10 15:55:00
12:15 PM,59.5,17.2,19,30.32,10.0,ENE,5.8,-,N/A,,Clear,70,2013-03-10 16:15:00
12:35 PM,60.8,16.2,18,30.31,10.0,Calm,Calm,-,N/A,,Clear,0,2013-03-10 16:35:00
12:55 PM,60.8,14.0,16,30.31,10.0,East,5.8,-,N/A,,Clear,80,2013-03-10 16:55:00
1:15 PM,62.4,15.8,16,30.30,10.0,Calm,Calm,-,N/A,,Clear,0,2013-03-10 17:15:00
1:35 PM,62.6,12.0,14,30.29,10.0,ESE,5.8,9.2,N/A,,Clear,120,2013-03-10 17:35:00
1:55 PM,63.3,17.1,17,30.28,10.0,East,4.6,-,N/A,,Clear,80,2013-03-10 17:55:00
2:15 PM,64.0,17.6,17,30.27,10.0,South,4.6,-,N/A,,Clear,170,2013-03-10 18:15:00
2:35 PM,64.4,16.5,16,30.26,10.0,Calm,Calm,-,N/A,,Clear,0,2013-03-10 18:35:00
2:55 PM,64.9,15.1,15,30.26,10.0,ENE,4.6,-,N/A,,Clear,60,2013-03-10 18:55:00
3:15 PM,65.1,15.3,15,30.26,10.0,ESE,3.5,-,N/A,,Clear,120,2013-03-10 19:15:00
3:35 PM,65.8,16.9,15,30.25,10.0,East,5.8,-,N/A,,Clear,100,2013-03-10 19:35:00
3:55 PM,66.4,16.9,15,30.25,10.0,SE,4.6,-,N/A,,Clear,140,2013-03-10 19:55:00
4:15 PM,65.8,16.7,15,30.25,10.0,East,3.5,-,N/A,,Clear,80,2013-03-10 20:15:00
4:35 PM,65.8,15.1,14,30.24,10.0,SE,3.5,-,N/A,,Clear,140,2013-03-10 20:35:00
4:55 PM,66.2,17.8,16,30.25,10.0,Calm,Calm,-,N/A,,Clear,0,2013-03-10 20:55:00
5:15 PM,66.2,17.6,15,30.24,10.0,ESE,3.5,-,N/A,,Clear,110,2013-03-10 21:15:00
5:35 PM,66.2,17.4,15,30.23,10.0,ESE,5.8,-,N/A,,Clear,120,2013-03-10 21:35:00
5:55 PM,65.7,16.9,15,30.24,10.0,ESE,3.5,-,N/A,,Clear,120,2013-03-10 21:55:00
6:15 PM,64.8,18.0,17,30.24,10.0,ESE,3.5,-,N/A,,Clear,120,2013-03-10 22:15:00
6:35 PM,63.5,19.8,19,30.24,10.0,Calm,Calm,-,N/A,,Clear,0,2013-03-10 22:35:00
6:55 PM,57.7,30.9,36,30.24,10.0,Calm,Calm,-,N/A,,Clear,0,2013-03-10 22:55:00
7:15 PM,58.8,28.2,31,30.25,10.0,SE,3.5,-,N/A,,Clear,130,2013-03-10 23:15:00
7:35 PM,57.2,32.0,38,30.26,10.0,Calm,Calm,-,N/A,,Clear,0,2013-03-10 23:35:00
7:55 PM,56.1,32.9,41,30.25,10.0,SE,3.5,-,N/A,,Clear,130,2013-03-10 23:55:00
8:15 PM,52.3,34.9,51,30.26,10.0,Calm,Calm,-,N/A,,Clear,0,2013-03-11 00:15:00
8:35 PM,51.6,35.4,54,30.27,10.0,Calm,Calm,-,N/A,,Clear,0,2013-03-11 00:35:00
8:55 PM,50.0,35.8,58,30.27,10.0,Calm,Calm,-,N/A,,Clear,0,2013-03-11 00:55:00
9:15 PM,47.7,36.9,66,30.27,10.0,Calm,Calm,-,N/A,,Clear,0,2013-03-11 01:15:00
9:35 PM,46.6,36.7,68,30.27,10.0,Calm,Calm,-,N/A,,Clear,0,2013-03-11 01:35:00
9:55 PM,45.0,36.9,73,30.28,10.0,Calm,Calm,-,N/A,,Clear,0,2013-03-11 01:55:00
10:15 PM,43.0,36.9,79,30.28,10.0,Calm,Calm,-,N/A,,Clear,0,2013-03-11 02:15:00
10:35 PM,42.1,36.3,80,30.28,10.0,Calm,Calm,-,N/A,,Clear,0,2013-03-11 02:35:00
10:55 PM,41.5,36.0,81,30.28,10.0,Calm,Calm,-,N/A,,Clear,0,2013-03-11 02:55:00
11:15 PM,41.2,36.1,82,30.29,10.0,Calm,Calm,-,N/A,,Clear,0,2013-03-11 03:15:00
11:35 PM,40.3,36.9,88,30.28,10.0,Calm,Calm,-,N/A,,Clear,0,2013-03-11 03:35:00
11:55 PM,40.3,36.0,85,30.28,10.0,Calm,Calm,-,N/A,,Clear,0,2013-03-11 03:55:00
12:15 AM,39.2,36.5,90,30.28,10.0,Calm,Calm,-,N/A,,Clear,0,2013-03-11 04:15:00
12:35 AM,38.8,36.7,92,30.27,10.0,Calm,Calm,-,N/A,,Clear,0,2013-03-11 04:35:00
12:55 AM,39.4,36.5,89,30.26,10.0,Calm,Calm,-,N/A,,Clear,0,2013-03-11 04:55:00